Regional Weather Roundup
Issued by NWS

Home | Current Version | Previous Version | Text Only | Print | Product List | Glossary On
Versions: 1 2 3 4 5 6 7 8 9 10 11 12 13 14 15 16 17 18 19 20 21 22 23 24 25 26 27 28 29 30 31 32 33 34 35 36 37 38 39 40 41 42 43 44 45 46 47 48 49 50
000
ASUS46 KSTO 230015
RWRCA

NORTHERN AND CENTRAL CA REGIONAL WEATHER ROUNDUP
NATIONAL WEATHER SERVICE SACRAMENTO CA
500 PM PDT SAT JUL 22 2017

NOTE: FAIR INDICATES FEW OR NO CLOUDS BELOW 12,000 FEET WITH NO
SIGNIFICANT WEATHER AND/OR OBSTRUCTIONS TO VISIBILITY.

CAZ001-003-230100-
NORTHWEST AREA

CITY           SKY/WX    TMP DP  RH WIND       PRES   REMARKS
CRESCENT CITY  SUNNY     63  55  75 N17G28    29.90F
UKIAH          SUNNY    100  42  13 W10       29.81F HX  95
$$

CAZ006-505>513-230100-
BAY AREA

CITY           SKY/WX    TMP DP  RH WIND       PRES   REMARKS
SANTA ROSA     SUNNY     92  55  28 S12       29.81F HX  90
SAN RAFAEL     N/A       88  MM  MM MISG
NAPA           SUNNY     87  57  35 S12       29.82F
CONCORD        SUNNY     99  53  21 NW12      29.79F HX  96
OAKLAND CITY   N/A      MM  MM  MM MISG
OAKLAND        MOSUNNY   80  57  45 NW14      29.84F
SAN FRAN CITY  N/A       72  MM  48 MISG
SAN FRAN ARPT  MOSUNNY   79  52  38 NW15      29.82F
LIVERMORE      SUNNY    100  48  17 W8        29.80F HX  96
HAYWARD        SUNNY     90  54  29 NW13      29.82F
REDWOOD CITY   N/A       85  MM  44 MISG
MOFFETT ARPT   SUNNY     83  58  42 NW13      29.83F
SAN JOSE ARPT  MOSUNNY   89  59  36 NW13      29.82F
$$
CAZ034-037-514>518-230100-
CENTRAL COAST

CITY           SKY/WX    TMP DP  RH WIND       PRES   REMARKS
WATSONVILLE    SUNNY     65  56  72 S7        29.90F
SALINAS        SUNNY     67  55  65 W14       29.88F
MONTEREY       MOSUNNY   70  56  61 NE7       29.88F
SAN LUIS OBISP SUNNY     71  54  54 NW10      29.88F
SANTA MARIA    SUNNY     66  56  70 NW9       29.90F
$$
CAZ015-016-230100-
NORTHERN SACRAMENTO VALLEY

CITY           SKY/WX    TMP DP  RH WIND       PRES   REMARKS
REDDING        SUNNY    106  41  11 SW8       29.76F HX 100
RED BLUFF      SUNNY    102  49  16 S12       29.78F HX  99
OROVILLE       SUNNY     99  56  23 MISG      29.80F HX  97
$$
CAZ016>018-230100-
SOUTHERN SACRAMENTO VALLEY

CITY           SKY/WX    TMP DP  RH WIND       PRES   REMARKS
AUBURN         SUNNY     93  48  21 W5        29.89F HX  90
LINCOLN        FAIR     100  41  13 SW7       29.78F HX  96
MARYSVILLE     SUNNY    100  52  19 SW7       29.78F HX  97
SAC INTL ARPT  SUNNY     98  50  19 SW5       29.77F HX  95
MATHER AIRPORT SUNNY    100  46  16 W5        29.78F HX  96
DOWNTOWN SAC   N/A      101  MM  MM MISG
SAC EXEC ARPT  SUNNY     99  48  17 SW6       29.78F HX  95
VACAVILLE      SUNNY    101  53  20 SW12      29.80F HX  99
$$
CAZ019>021-230100-
SAN JOAQUIN VALLEY

CITY           SKY/WX    TMP DP  RH WIND       PRES   REMARKS
STOCKTON       SUNNY    101  41  12 SW8       29.78F HX  96
MODESTO        SUNNY    102  41  12 N6        29.78F HX  97
MERCED         SUNNY     98  47  17 W6        29.79F HX  94
LEMOORE        SUNNY    101  36  10 N12       29.80F HX  95
FRESNO         MOSUNNY   99  49  18 NW8       29.80F HX  96
HANFORD        PTSUNNY   99  45  15 N8        29.80F HX  95
PORTERVILLE      N/A     99  55  23 NW9       29.81F HX  97
BAKERSFIELD    SUNNY     99  51  19 W10       29.79F HX  96
$$
CAZ011-012-071-230100-
NORTHERN MOUNTAINS

CITY           SKY/WX    TMP DP  RH WIND       PRES   REMARKS
YREKA          SUNNY     97  43  15 NW18      29.97F HX  93
MOUNT SHASTA   SUNNY     89  48  24 VRB3      30.03F
ALTURAS        SUNNY     95  29   9 CALM      30.06F
$$
CAZ011-012-071-230100-
SIERRA NEVADA MTNS

CITY           SKY/WX    TMP DP  RH WIND       PRES   REMARKS
TRUCKEE        MOSUNNY   88  43  20 NW5       30.17F
TAHOE VLY ARPT SUNNY     86  36  16 NE7       30.20F
MAMMOTH LAKES  FAIR      87  30  12 NE5       30.24F
$$



USA.gov is the U.S. government's official web portal to all federal, state and local government web resources and services.